Regional Weather Roundup
Issued by NWS Charleston, SC

Current Version | Previous Version | Graphics & Text | Print | Product List | Glossary On
Versions: 1 2 3 4 5 6 7 8 9 10 11 12 13 14 15 16 17 18 19 20 21 22 23 24 25 26 27 28 29 30 31 32 33 34 35 36 37 38 39 40 41 42 43 44 45 46 47 48 49 50
000 ASUS42 KCHS 301612 RWRCHS REGIONAL WEATHER ROUNDUP NATIONAL WEATHER SERVICE CHARLESTON SC 1200 PM EDT SUN AUG 30 2015 NOTE: "FAIR" INDICATES FEW OR NO CLOUDS BELOW 12,000 FEET WITH NO SIGNIFICANT WEATHER AND/OR OBSTRUCTIONS TO VISIBILITY. NOT ALL STATIONS ARE QUALITY CONTROLLED BY THE NATIONAL WEATHER SERVICE. USE DATA WITH CAUTION...ESPECIALLY DEWPOINT OBSERVATIONS. SCZ027-030-031-034>040-042>050-301700- ...SOUTHEAST SOUTH CAROLINA... CITY SKY/WX TMP DP RH WIND PRES REMARKS N CHARLESTON HVY RAIN 75 72 90 SE8 30.15R FOG WATERFRONT PRK N/A 79 75 87 CALM 30.12R MOUNT PLEASANT LGT RAIN 81 75 83 CALM 30.14F JOHNS ISLAND DRIZZLE 77 77 100 CALM 30.15R PINOPOLIS N/A 82 73 74 VRB3 30.06S MONCKS CORNER FAIR 81 72 74 CALM 30.14S SUMMERVILLE PTSUNNY 79 75 89 E3 30.15F BEAUFORT MCAS CLOUDY 78 76 93 NE5 30.12F BEAUFORT ARPT FAIR 81 75 83 CALM 30.11F HILTON HEAD IS CLOUDY 79 73 83 N3 30.12F WALTERBORO CLOUDY 79 73 83 E3 30.15S ALLENDALE CLOUDY 75 73 94 CALM 30.13F ...SOUTHERN MIDLANDS AND PEE DEE... CITY SKY/WX TMP DP RH WIND PRES REMARKS GEORGETOWN NOT AVBL KINGSTREE NOT AVBL ORANGEBURG CLOUDY 77 70 79 E7 30.15S BARNWELL FAIR 75 73 94 E6 30.15F AIKEN LGT RAIN 70 68 94 NE7 30.19S MANNING CLOUDY 77 72 83 NE3 30.16R COLUMBIA LGT RAIN 77 65 66 NE7 30.16R SUMTER CLOUDY 75 67 76 NE6 30.15R FLORENCE CLOUDY 79 69 71 NE7 30.16F MYRTLE BEACH PTSUNNY 82 70 65 E14 30.16F N MYRTLE BEACH PTSUNNY 82 70 66 E8 30.15F $$ GAZ063-065-086>088-099>101-113>116-118-119-134>141-150-301700- ...SOUTHEAST GEORGIA... CITY SKY/WX TMP DP RH WIND PRES REMARKS SAVANNAH ARPT CLOUDY 82 75 79 NE7 30.10F HUNTER AAF PTSUNNY 82 79 90 E7 30.07F HX 93 FORT STEWART PTSUNNY 83 74 76 VRB5 30.07F STATESBORO PTSUNNY 79 79 100 E6 30.12F SYLVANIA CLOUDY 80 76 90 E6 30.14F CLAXTON NOT AVBL ...CSRA...CENTRAL AND FAR SOUTHEAST GEORGIA... CITY SKY/WX TMP DP RH WIND PRES REMARKS THOMSON CLOUDY 76 74 96 E7 30.19S AUGUSTA-BUSH CLOUDY 76 72 87 E8 30.14R AUGUSTA-DANIEL CLOUDY 84 70 62 E9 30.15S SWAINSBORO CLOUDY 81 77 89 E8 30.13S VIDALIA CLOUDY 82 73 74 E5 30.10F EASTMAN CLOUDY 81 76 86 S3 30.13S HAZLEHURST PTSUNNY 84 76 75 E5 30.08F HX 93 ALMA PTSUNNY 84 74 71 SE7 30.08F HX 91 WAYCROSS CLOUDY 86 78 75 CALM 30.07F HX 98 JESUP FAIR 86 79 79 E3 30.08F HX 99 BAXLEY PTSUNNY 84 73 70 SE6 30.08F HX 91 BRUNSWICK CLOUDY 82 73 74 E7 30.08S THUNDER SAINT SIMONS TSTM 78 76 93 S7 30.10R FOG $$ SCZ027-028-034-036>038-045-046-048>050-GAZ119-141-301700- ...LAKE AND SUPPLEMENTAL COASTAL OBSERVATIONS... STATION/POSITION TIME TEMP WIND PRES WAVE SWELL AIR SEA DIR/SP/G HT/PER HT/PER/DIR (UTC) (F) (DEG/KT/KT) (MB) (FT/S) (FT/S/D) UPR LAKE MARION NOT AVBL WINYAH BAY NOT AVBL LAKE MURRAY 1500 74 30/ 2/ 5 1021.0R ACE BASIN NERRS NOT AVBL FORT PULASKI NOT AVBL SAPELO ISLAND 1500 85 80/ 6 1019.0R $$ ANZ835-935-AMZ111-154-330-350-352-354-370-450-454-472-301700- ...C-MAN AND BUOY OBSERVATIONS... STATION/POSITION TIME TEMP WIND PRES WAVE SWELL AIR SEA DIR/SP/G HT/PER HT/PER/DIR (UTC) (F) (DEG/KT/KT) (MB) (FT/S) (FT/S/D) BUOY 41004 1550 80 85 80/ 10/ 14 1020.1R 4/10 3/10 BUOY 41008 1550 82 84 100/ 10/ 12 1018.7S 4/11 3/100/11 FOLLY BEACH CMAN 1500 80 80/ 10/ 12 1020.5R CAPERS NEARSHORE NOT AVBL FRIPP NEARSHORE NOT AVBL STATION/POSITION TIME TEMP WIND PRES WAVE SWELL AIR SEA DIR/SP/G HT/PER HT/PER/DIR (UTC) (F) (DEG/KT/KT) (MB) (FT/S) (FT/S/D) 5E ST. MARYS GA 1521 86 N/A 4/11 2/110/11 FRYING PAN BUOY 1550 80 82 80/ 12/ 14 1021.3F 4/10 3/130/10 BUOY 41025 1550 79 83 350/ 8/ 10 1021.6R 4/10 3/ 90/10 CAPE LOOKOUT NC 1500 78 360/ 2/ 3 1021.6R BUOY 41002 1550 83 84 300/ 4/ 8 1021.6S BUOY 41010 1520 85 85 130/ 19/ 21 1017.9F ST AUGUSTINE FL 1600 77 83 120/ 1/ 2 1018.6S $$

USA.gov is the U.S. government's official web portal to all federal, state and local government web resources and services.